• Join FlightAware (Why Join?)
  • Login
  • US Flag 
05:09AM EST


 

Airport Tracker/Info


-or-


 

Live Flight TrackerFlight Track Log ✈ SKW6345 ✈ 23-Apr-2013 ✈ KCOD - KDEN

Flight Track Log - Related Links

Times and Time Zones

All times are in EDT time to prevent confusion due to time zone crossing. See the SKW6345 flight status page for this flight to view local times or setup timezone preferences in your user account.

Time Position Orientation Groundspeed Altitude Reporting Facility
EDT Latitude Longitude Course Direction KTS MPH feet Rate Location/Type
09:29AM 44.4989 -109.0606 157° South 159 183 6,500  Level Salt Lake Center
09:30AM 44.4592 -109.0169 142° Southeast 222 255 8,500 2,213 Climbing Salt Lake Center
09:31AM 44.4253 -108.9189 116° Southeast 240 276 11,000 1,721 Climbing Salt Lake Center
09:32AM 44.0372 -108.6217 159° South  Level FlightAware Approximate
09:32AM 44.3739 -108.8267 128° Southeast 286 329 12,000  Level Salt Lake Center
09:33AM 43.9393 -108.5673 157° South  Level FlightAware Approximate
09:33AM 44.2906 -108.7744 156° South 329 379 13,900  Level Salt Lake Center
09:34AM 43.8422 -108.5106 157° South  Level FlightAware Approximate
09:34AM 44.1886 -108.7183 158° South 345 397 16,100  Level Salt Lake Center
09:35AM 44.0983 -108.6647 157° South 357 411 17,800 1,475 Climbing Salt Lake Center
09:36AM 44.0044 -108.6097 157° South 374 430 19,100 1,377 Climbing Salt Lake Center
09:37AM 43.8936 -108.5464 158° South 384 442 20,600 1,366 Climbing Salt Lake Center
09:38AM 43.7964 -108.4900 157° South 393 452 21,900 1,317 Climbing Salt Lake Center
09:39AM 43.6792 -108.4239 158° South 404 465 23,300 1,180 Climbing Salt Lake Center
09:40AM 43.5778 -108.3669 158° South 408 470 24,300 934 Climbing Salt Lake Center
09:41AM 43.4733 -108.3083 158° South 420 483 25,200 885 Climbing Salt Lake Center
09:42AM 43.3669 -108.2003 144° Southeast 425 489 26,100 780 Climbing Salt Lake Center
09:43AM 43.2756 -108.1025 142° Southeast 434 499 26,800 732 Climbing Salt Lake Center
09:44AM 43.1689 -107.9889 142° Southeast 436 502 27,600 738 Climbing Salt Lake Center
09:45AM 43.0758 -107.8925 143° Southeast 438 504 28,300 639 Climbing Salt Lake Center
09:46AM 42.9836 -107.7939 142° Southeast 441 507 28,900 585 Climbing Salt Lake Center
09:47AM 42.8786 -107.6828 142° Southeast 441 507 29,500 537 Climbing Salt Lake Center
09:48AM 42.7847 -107.5836 142° Southeast 445 512 30,000 541 Climbing Salt Lake Center
09:49AM 42.6733 -107.4683 143° Southeast 450 518 30,600 488 Climbing Salt Lake Center
09:50AM 42.5783 -107.3719 143° Southeast 447 514 31,000 231 Climbing Salt Lake Center
09:51AM 42.4989 -107.2881 142° Southeast 451 519 31,000  Level Denver Center
09:52AM 42.4025 -107.1894 143° Southeast 454 522 31,000  Level Denver Center
09:53AM 42.3053 -107.0906 143° Southeast 454 522 31,000  Level Denver Center
09:54AM 42.1928 -106.9747 143° Southeast 455 524 31,000  Level Denver Center
09:55AM 42.0981 -106.8794 143° Southeast 448 516 31,000  Level Denver Center
09:56AM 42.0025 -106.7844 144° Southeast 447 514 31,000  Level Denver Center
09:57AM 41.8917 -106.6728 143° Southeast 445 512 31,000  Level Denver Center
09:58AM 41.7950 -106.5775 144° Southeast 449 517 31,000  Level Denver Center
09:59AM 41.6964 -106.4778 143° Southeast 453 521 31,000  Level Denver Center
10:00AM 41.5833 -106.3667 144° Southeast 453 521 31,000  Level Denver Center
10:01AM 41.4853 -106.2700 144° Southeast 455 524 31,000  Level Denver Center
10:02AM 41.3586 -106.2014 158° South 443 510 31,000  Level Denver Center
10:03AM 41.2481 -106.1531 162° South 437 503 31,000  Level Denver Center
10:04AM 41.1206 -106.0983 162° South 433 498 31,000  Level Denver Center
10:05AM 41.0169 -106.0383 156° South 440 506 31,000  Level Denver Center
10:06AM 40.9039 -105.9733 157° South 443 510 31,000 -244 Level Denver Center
10:07AM 40.8219 -105.8383 129° Southeast 468 539 30,500 -976 Descending Denver Center
10:08AM 40.7447 -105.6944 125° Southeast 477 549 29,000 -1,902 Descending Denver Center
10:09AM 40.6586 -105.5331 125° Southeast 461 531 26,600 -2,244 Descending Denver Center
10:10AM 40.5856 -105.4075 127° Southeast 437 503 24,400 -2,000 Descending Denver Center
10:11AM 40.5194 -105.2864 126° Southeast 408 470 22,500 -2,049 Descending Denver Center
10:12AM 40.4428 -105.2000 139° Southeast 382 440 20,200 -1,756 Descending Denver Center
10:13AM 40.3614 -105.1311 147° Southeast 353 406 18,900 -1,268 Descending Denver Center
10:14AM 40.2681 -105.0597 150° Southeast 359 413 17,600 -1,366 Descending Denver Center
10:15AM 40.1761 -105.0119 158° South 353 406 16,100 -1,512 Descending Denver Center
10:16AM 40.0836 -104.9639 158° South 354 407 14,500 -1,366 Descending Denver Center
10:17AM 39.9883 -104.9133 158° South 346 398 13,300 -1,171 Descending Denver Center
10:18AM 39.9100 -104.8731 158° South 310 357 12,100 -1,073 Descending Denver Center
10:19AM 39.8317 -104.8308 158° South 283 326 11,100 -581 Descending Denver Center
10:20AM 39.7658 -104.8106 167° South 244 281 10,900 -488 Descending Denver Center
10:22AM 39.6992 -104.8114 181° South 241 277 10,100 -439 Descending Denver Center
10:23AM 39.6261 -104.8133 181° South 244 281 10,000 -48 Descending Denver Center
10:24AM 39.5600 -104.8153 181° South 240 276 10,000  Level Denver Center
10:25AM 39.4942 -104.8175 181° South 219 252 10,000 49 Level Denver Center
10:26AM 39.4444 -104.7869 155° Southeast 240 276 10,100  Climbing Denver Center
10:27AM 39.4419 -104.7081 92° East 224 258 10,000 -49 Descending Denver Center
10:28AM 39.4986 -104.6900 14° North 215 247 10,000  Level Denver Center
10:29AM 39.5569 -104.6922 358° North 212 244 10,000  Level Denver Center
10:30AM 39.6150 -104.6906 North 212 244 10,000 -390 Level Denver Center
10:31AM 39.6783 -104.6897 North 210 242 9,200 -774 Descending Denver Center